Fort Dodge
Monday 10:56 PM
Temperature79° (90°/65°)
Dew Point62°
Relative Humidity56
%
Visibility10
mi
Pressure1011.9
mb
Wind DirectionSSW
200°
Wind Speed16
mph
Precipitation Today0.00"

Last 30 Observations

Time PresWx Temp DP Feels RH% Vsby Pressure Ceiling Direction Speed 1h Precip
10:56 PM 79° 62° 56
%
10
mi
1011.9
mb
SSW
200°
16
mph
0.00"
8:56 PM 84° 60° 44
%
10
mi
1010.8
mb
SSW
200°
16
mph
(G22)
0.00"
8:33 PM 84° 61° 45
%
10
mi
1010.8
mb
SSW
210°
15
mph
0.00"
7:56 PM 87° 60° 40
%
10
mi
1010.8
mb
SSW
210°
17
mph
(G24)
0.00"
6:56 PM 89° 62° 41
%
10
mi
1010.5
mb
SW
220°
16
mph
(G24)
0.00"
5:56 PM 90° 62° 40
%
10
mi
1010.5
mb
SSW
210°
20
mph
(G30)
0.00"
4:56 PM 90° 63° 41
%
10
mi
1010.5
mb
SSW
200°
23
mph
(G30)
0.00"
3:56 PM 89° 64° 44
%
10
mi
1010.8
mb
SW
220°
23
mph
(G34)
0.00"
2:56 PM 88° 63° 43
%
10
mi
1011.2
mb
SSW
210°
25
mph
(G36)
0.00"
1:56 PM 87° 62° 43
%
10
mi
SSW
210°
30
mph
(G36)
0.00"
1:54 PM 88° 63° 43
%
10
mi
1011.2
mb
SSW
210°
29
mph
(G34)
0.00"
12:56 PM 85° 62° 46
%
10
mi
1012.2
mb
SW
220°
26
mph
(G33)
0.00"
11:56 AM 84° 62° 48
%
10
mi
1013.2
mb
SSW
210°
22
mph
(G33)
0.00"
10:56 AM 80° 62° 54
%
10
mi
1013.9
mb
SSW
210°
23
mph
(G34)
0.00"
9:56 AM 76° 63° 64
%
10
mi
1014.9
mb
🔻
S
190°
16
mph
(G26)
0.00"
8:56 AM 72° 61° 68
%
10
mi
1016.3
mb
S
170°
13
mph
(G21)
0.00"
7:56 AM 68° 59° 73
%
10
mi
1016.3
mb
S
170°
10
mph
0.00"
6:56 AM 65° 57° 76
%
10
mi
1016.3
mb
S
170°
9
mph
0.00"
5:56 AM 65° 56° 73
%
10
mi
1016.6
mb
12,000
ft
S
170°
8
mph
0.00"
4:56 AM 66° 55° 68
%
10
mi
1016.9
mb
11,000
ft
SSE
160°
11
mph
0.00"
3:56 AM 66° 54° 65
%
10
mi
1017.3
mb
10,000
ft
S
170°
14
mph
(G23)
0.00"
2:56 AM 67° 53° 61
%
10
mi
1018.3
mb
S
170°
13
mph
(G20)
0.00"
1:56 AM 67° 53° 61
%
10
mi
1019.0
mb
10,000
ft
SSE
160°
13
mph
(G20)
0.00"
12:56 AM 66° 53° 63
%
10
mi
1019.7
mb
11,000
ft
SSE
160°
10
mph
(G17)
0.00"
11:56 PM 66° 53° 63
%
10
mi
1020.0
mb
SSE
160°
8
mph
(G17)
0.00"
10:56 PM 67° 53° 61
%
10
mi
1020.3
mb
S
170°
7
mph
0.00"
9:56 PM 67° 52° 59
%
10
mi
1020.0
mb
SSE
160°
8
mph
0.00"
9:04 PM 68° 52° 56
%
10
mi
1019.7
mb
SSE
160°
8
mph
0.00"
8:56 PM 68° 52° 57
%
10
mi
1019.7
mb
SSE
160°
8
mph
0.00"
8:13 PM 70° 52° 53
%
10
mi
1019.7
mb
SSE
160°
10
mph
0.00"